• In Uzbekistan
  • List of Countries
  • For 7 days
  • Water Temperature
  • Satellite Maps
  • Weather Map
  • Weather Widgets
  • user-avatar
    Login

    Hourly Weather Fier

    Today, 21 July, Friday

    Time Temperature Precipitation Wind Pressure Humidity
    00:00 +25°C° 0 mm 1 mps 759 mmHg 60%
    01:00 +25°C° 0 mm 1 mps 758 mmHg 59%
    02:00 +25°C° 0 mm 1 mps 758 mmHg 60%
    03:00 +25°C° 0 mm 1 mps 758 mmHg 60%
    04:00 +24°C° 0 mm 2 mps 758 mmHg 61%
    05:00 +26°C° 0 mm 1 mps 759 mmHg 57%
    06:00 +28°C° 0 mm 1 mps 759 mmHg 52%
    07:00 +30°C° 0 mm 1 mps 759 mmHg 48%
    08:00 +32°C° 0 mm 1 mps 759 mmHg 43%
    09:00 +35°C° 0 mm 2 mps 759 mmHg 39%
    10:00 +36°C° 0 mm 2 mps 759 mmHg 34%
    11:00 +37°C° 0 mm 2 mps 759 mmHg 32%
    12:00 +38°C° 0 mm 3 mps 759 mmHg 30%
    13:00 +38°C° 0 mm 4 mps 758 mmHg 29%
    14:00 +38°C° 0 mm 4 mps 758 mmHg 30%
    15:00 +38°C° 0 mm 4 mps 758 mmHg 32%
    16:00 +37°C° 0 mm 4 mps 758 mmHg 33%
    17:00 +35°C° 0 mm 3 mps 758 mmHg 40%
    18:00 +32°C° 0 mm 2 mps 758 mmHg 47%
    19:00 +30°C° 0 mm 2 mps 758 mmHg 53%
    20:00 +29°C° 0 mm 1 mps 759 mmHg 55%
    21:00 +28°C° 0 mm 1 mps 759 mmHg 56%
    22:00 +27°C° 0 mm 1 mps 759 mmHg 58%
    23:00 +27°C° 0 mm 1 mps 759 mmHg 58%

    Tomorrow, 22 July, Saturday

    Time Temperature Precipitation Wind Pressure Humidity
    00:00 +27°C° 0 mm 1 mps 759 mmHg 57%
    01:00 +27°C° 0 mm 1 mps 759 mmHg 57%
    02:00 +27°C° 0 mm 1 mps 759 mmHg 57%
    03:00 +26°C° 0 mm 1 mps 759 mmHg 57%
    04:00 +26°C° 0 mm 1 mps 759 mmHg 57%
    05:00 +28°C° 0 mm 1 mps 759 mmHg 52%
    06:00 +30°C° 0 mm 1 mps 760 mmHg 48%
    07:00 +32°C° 0 mm 1 mps 760 mmHg 44%
    08:00 +34°C° 0 mm 1 mps 760 mmHg 39%
    09:00 +35°C° 0 mm 1 mps 760 mmHg 35%
    10:00 +38°C° 0 mm 2 mps 760 mmHg 30%
    11:00 +39°C° 0 mm 2 mps 760 mmHg 28%
    12:00 +39°C° 0 mm 3 mps 760 mmHg 27%
    13:00 +41°C° 0 mm 4 mps 759 mmHg 25%
    14:00 +41°C° 0 mm 4 mps 759 mmHg 26%
    15:00 +39°C° 0 mm 3 mps 759 mmHg 27%
    16:00 +39°C° 0 mm 3 mps 759 mmHg 28%
    17:00 +36°C° 0 mm 2 mps 759 mmHg 33%
    18:00 +34°C° 0 mm 2 mps 759 mmHg 38%
    19:00 +30°C° 0 mm 1 mps 759 mmHg 43%
    20:00 +30°C° 0 mm 1 mps 759 mmHg 43%
    21:00 +29°C° 0 mm 1 mps 760 mmHg 43%
    22:00 +28°C° 0 mm 1 mps 760 mmHg 44%
    23:00 +28°C° 0 mm 1 mps 760 mmHg 43%

    Day after tomorrow, 23 July, Sunday

    Time Temperature Precipitation Wind Pressure Humidity
    00:00 +28°C° 0 mm 1 mps 760 mmHg 43%
    01:00 +27°C° 0 mm 1 mps 760 mmHg 42%
    02:00 +27°C° 0 mm 1 mps 759 mmHg 42%
    03:00 +27°C° 0 mm 1 mps 759 mmHg 41%
    04:00 +27°C° 0 mm 1 mps 759 mmHg 41%
    05:00 +29°C° 0 mm 1 mps 759 mmHg 39%
    06:00 +31°C° 0 mm 1 mps 759 mmHg 36%
    07:00 +33°C° 0 mm 1 mps 759 mmHg 34%
    08:00 +35°C° 0 mm 1 mps 759 mmHg 32%
    09:00 +37°C° 0 mm 2 mps 759 mmHg 29%
    10:00 +39°C° 0 mm 3 mps 759 mmHg 27%
    11:00 +39°C° 0 mm 3 mps 758 mmHg 26%
    12:00 +41°C° 0 mm 4 mps 758 mmHg 25%
    13:00 +41°C° 0 mm 4 mps 758 mmHg 24%
    14:00 +41°C° 0 mm 4 mps 758 mmHg 25%
    15:00 +40°C° 0 mm 4 mps 757 mmHg 26%
    16:00 +40°C° 0 mm 4 mps 757 mmHg 27%
    17:00 +36°C° 0 mm 4 mps 757 mmHg 33%
    18:00 +34°C° 0 mm 3 mps 757 mmHg 39%
    19:00 +30°C° 0 mm 3 mps 758 mmHg 45%
    20:00 +29°C° 0 mm 2 mps 758 mmHg 46%
    21:00 +28°C° 0 mm 2 mps 758 mmHg 48%
    22:00 +27°C° 0 mm 2 mps 758 mmHg 50%
    23:00 +27°C° 0 mm 2 mps 758 mmHg 50%

    24 July, Monday

    Time Temperature Precipitation Wind Pressure Humidity
    00:00 +26°C° 0 mm 2 mps 758 mmHg 50%
    01:00 +26°C° 0 mm 1 mps 758 mmHg 50%
    02:00 +26°C° 0 mm 2 mps 757 mmHg 49%
    03:00 +26°C° 0 mm 2 mps 757 mmHg 49%
    04:00 +26°C° 0 mm 2 mps 756 mmHg 48%
    05:00 +28°C° 0 mm 2 mps 757 mmHg 44%
    06:00 +30°C° 0 mm 2 mps 757 mmHg 40%
    07:00 +32°C° 0 mm 1 mps 757 mmHg 36%
    08:00 +34°C° 0 mm 2 mps 756 mmHg 32%
    09:00 +36°C° 0 mm 2 mps 756 mmHg 28%
    10:00 +38°C° 0 mm 2 mps 756 mmHg 24%
    11:00 +39°C° 0 mm 2 mps 755 mmHg 22%
    12:00 +40°C° 0 mm 3 mps 755 mmHg 20%
    13:00 +42°C° 0 mm 4 mps 755 mmHg 18%
    14:00 +40°C° 0 mm 3 mps 754 mmHg 20%
    15:00 +40°C° 0 mm 3 mps 754 mmHg 21%
    16:00 +40°C° 0 mm 2 mps 753 mmHg 22%
    17:00 +37°C° 0 mm 2 mps 753 mmHg 28%
    18:00 +35°C° 0 mm 3 mps 753 mmHg 33%
    19:00 +31°C° 0 mm 3 mps 753 mmHg 38%
    20:00 +30°C° 0 mm 3 mps 753 mmHg 40%
    21:00 +29°C° 0 mm 4 mps 753 mmHg 42%
    22:00 +28°C° 0 mm 4 mps 753 mmHg 44%
    23:00 +28°C° 0 mm 5 mps 753 mmHg 45%

    25 July, Tuesday

    Time Temperature Precipitation Wind Pressure Humidity
    00:00 +28°C° 0 mm 5 mps 753 mmHg 46%
    01:00 +27°C° 0 mm 6 mps 752 mmHg 47%
    02:00 +27°C° 0 mm 5 mps 752 mmHg 48%
    03:00 +26°C° 0 mm 5 mps 752 mmHg 49%
    04:00 +26°C° 0 mm 4 mps 752 mmHg 51%
    05:00 +27°C° 0 mm 4 mps 752 mmHg 50%
    06:00 +28°C° 0 mm 4 mps 752 mmHg 49%
    07:00 +30°C° 0 mm 3 mps 752 mmHg 49%
    08:00 +32°C° 0 mm 4 mps 752 mmHg 45%
    09:00 +33°C° 0 mm 4 mps 752 mmHg 41%
    10:00 +35°C° 0 mm 4 mps 752 mmHg 38%
    11:00 +35°C° 0 mm 4 mps 752 mmHg 37%
    12:00 +36°C° 0 mm 4 mps 752 mmHg 36%
    13:00 +36°C° 0 mm 5 mps 752 mmHg 35%
    14:00 +36°C° 0 mm 4 mps 752 mmHg 37%
    15:00 +35°C° 0 mm 4 mps 752 mmHg 40%
    16:00 +34°C° 0 mm 3 mps 752 mmHg 42%
    17:00 +33°C° 0 mm 3 mps 752 mmHg 49%
    18:00 +30°C° 0 mm 2 mps 752 mmHg 55%
    19:00 +28°C° 0 mm 2 mps 752 mmHg 61%
    20:00 +27°C° 0 mm 2 mps 752 mmHg 65%
    21:00 +26°C° 0 mm 2 mps 753 mmHg 69%
    22:00 +25°C° 0 mm 2 mps 753 mmHg 73%
    23:00 +24°C° 0 mm 2 mps 753 mmHg 73%

    26 July, Wednesday

    Time Temperature Precipitation Wind Pressure Humidity
    00:00 +24°C° 0 mm 2 mps 753 mmHg 74%
    01:00 +24°C° 0 mm 2 mps 753 mmHg 74%
    02:00 +24°C° 0 mm 2 mps 753 mmHg 73%
    03:00 +23°C° 0 mm 2 mps 753 mmHg 73%
    04:00 +23°C° 0 mm 2 mps 753 mmHg 73%
    05:00 +25°C° 0 mm 2 mps 753 mmHg 66%
    06:00 +27°C° 0 mm 2 mps 753 mmHg 60%
    07:00 +29°C° 0 mm 2 mps 753 mmHg 53%
    08:00 +30°C° 0 mm 2 mps 753 mmHg 48%
    09:00 +33°C° 0 mm 3 mps 753 mmHg 43%
    10:00 +34°C° 0 mm 3 mps 753 mmHg 37%
    11:00 +34°C° 0 mm 3 mps 753 mmHg 37%
    12:00 +35°C° 0 mm 4 mps 753 mmHg 36%
    13:00 +35°C° 0 mm 4 mps 753 mmHg 35%
    14:00 +35°C° 0 mm 4 mps 753 mmHg 38%
    15:00 +34°C° 0 mm 4 mps 753 mmHg 41%
    16:00 +34°C° 0 mm 3 mps 753 mmHg 44%
    17:00 +31°C° 0 mm 3 mps 753 mmHg 52%
    18:00 +29°C° 0 mm 2 mps 753 mmHg 59%
    19:00 +27°C° 0 mm 2 mps 754 mmHg 66%
    20:00 +26°C° 0.1 mm 2 mps 754 mmHg 72%
    21:00 +25°C° 0.1 mm 2 mps 754 mmHg 77%
    22:00 +24°C° 0.1 mm 1 mps 755 mmHg 83%
    23:00 +24°C° 0 mm 1 mps 755 mmHg 84%
    Show more